{"data":{"norad_id":68497,"epoch":"2026-05-24T21:33:41.232096Z","epoch_age_seconds":77079,"freshness":"FRESH","line1":"1 68497U 26067CK  26144.89839389  .00002121  00000+0  21443-3 0  9991","line2":"2 68497  97.7577 103.5283 0002766  59.8483 300.3009 14.92062717  8257","mean_motion":14.92062717,"eccentricity":0.0002766,"inclination_deg":97.7577,"raan_deg":103.5283,"arg_perigee_deg":59.8483,"mean_anomaly_deg":300.3009,"bstar":0.00021443,"rev_number":825,"period_min":96.510688431068,"perigee_km":589.57695250618,"apogee_km":593.43255832528,"semimajor_km":6969.6417554157,"source":"CELESTRAK","updated_at":"2026-05-25T13:38:07.877940Z"}}